Regional Weather Roundup
Issued by NWS

Current Version | Previous Version | Text Only | Print | Product List | Glossary On
Versions: 1 2 3 4 5 6 7 8 9 10 11 12 13 14 15 16 17 18 19 20 21 22 23 24 25 26 27 28 29 30 31 32 33 34 35 36 37 38 39 40 41 42 43 44 45 46 47 48 49 50
000
ASUS43 KBIS 260410
RWRND

NORTH DAKOTA REGIONAL WEATHER ROUNDUP
NATIONAL WEATHER SERVICE BISMARCK ND
1100 PM CDT WED MAY 25 2016

NOTE: "FAIR" INDICATES FEW OR NO CLOUDS BELOW 12,000 FEET WITH NO
SIGNIFICANT WEATHER AND/OR OBSTRUCTIONS TO VISIBILITY.


NDZ001>003-009>011-017-260500-
NORTHWEST NORTH DAKOTA

CITY           SKY/WX    TMP DP  RH WIND       PRES   REMARKS
WILLISTON      CLEAR     48  45  89 NW6       29.82R
MINOT          CLOUDY    59  54  83 S6        29.74F
MINOT AFB      CLOUDY    56  53  88 S1        29.73F
$$

NDZ018>021-031>035-040>046-260500-
SOUTHWEST NORTH DAKOTA

CITY           SKY/WX    TMP DP  RH WIND       PRES   REMARKS
BISMARCK       CLOUDY    58  51  78 W10       29.79S
DICKINSON      CLEAR     45  40  82 W6        29.82R
GARRISON         N/A     56  52  86 W3        29.78R
HETTINGER ARPT CLEAR     44  39  82 CALM      29.86R
$$

NDZ004>008-012>016-024-026-027-054-260500-
NORTHEAST NORTH DAKOTA

CITY           SKY/WX    TMP DP  RH WIND       PRES   REMARKS
GRAND FORKS    CLOUDY    59  56  89 W12       29.68F
GRND FRKS AFB  CLOUDY    58  58 100 W7        29.69S
DEVILS LAKE    CLOUDY    56  54  93 NE7       29.73F
$$

NDZ022-023-025-028>030-036>039-047>053-260500-
SOUTHEAST NORTH DAKOTA

CITY           SKY/WX    TMP DP  RH WIND       PRES   REMARKS
FARGO          CLOUDY    62  58  86 S6        29.74R
JAMESTOWN      LGT RAIN  58  57  97 SE7       29.71F
$$





USA.gov is the U.S. government's official web portal to all federal, state and local government web resources and services.